P/2017 B4 ( PanSTARRS )

Japanese version
Home page
Updated on March 25, 2017

---------------------------------------------------------------------

* Profile

Discovery Date January 28, 2017
Magnitude 21.2 mag
Discoverer Pan-STARRS 1 telescope (Haleakala)

* Pictures

* Orbital Elements

T 2017 Jan. 5.81784 TT                                  MPCW
q   2.8008939            (2000.0)            P               Q
n   0.10640681     Peri.   11.01974     -0.66541060     -0.68675504
a   4.4105198      Node   121.45777     +0.65615540     -0.72498229
e   0.3649515      Incl.   20.05838     +0.35593374     +0.05261364
P   9.26
From 50 observations 2017 Jan. 28-Feb. 5.

* Magnitudes Graph

        m1 = 14.5 + 5 log d + 10.0 log r

---------------------------------------------------------------------

The orbital elements are published on M.P.E.C. 2017-E59.
The magnitudes graphs are made with Comet for Windows.

---------------------------------------------------------------------

Copyright(C) Seiichi Yoshida (comet@aerith.net). All rights reserved.